Arcata, CA

11:30 PM PDT on August 22, 2017 (GMT -0700)
Arcata

Weather History for KACV - July, 2013

Change the Weather History Date:

Sunday, July 14, 2013

  Actual Average Record
Temperature  
Mean Temperature 52 °F -  
Max Temperature 60 °F 61 °F 69 °F (2003)
Min Temperature 44 °F 49 °F 44 °F (2013)
Degree Days  
Heating Degree Days 14    
Growing Degree Days 2 (Base 50)    
Moisture  
Dew Point 49 °F    
Average Humidity 92    
Maximum Humidity 100    
Minimum Humidity 75    
Precipitation  
Precipitation 0.00 in - - ()
Sea Level Pressure  
Sea Level Pressure 29.98 in    
Wind  
Wind Speed 2 mph (WNW)    
Max Wind Speed 7 mph    
Max Gust Speed -    
Visibility 7 miles    
Events Fog    
Averages and records for this station are not official NWS values.
T = Trace of Precipitation, MM = Missing Value Source: NWS Daily Summary

Daily Weather History Graph

Daily Weather History Graph

Search for Another Location

Airport or City:

Trip Planner

Search our weather history database for the weather conditions in past years. The results will help you decide how hot, cold, wet, or windy it might be!

Date:

Astronomy

Jul. 14, 2013 Rise Set
Actual Time 5:56 AM PDT 8:47 PM PDT
Civil Twilight 5:24 AM PDT 9:20 PM PDT
Nautical Twilight 4:43 AM PDT 10:00 PM PDT
Astronomical Twilight 3:55 AM PDT 10:48 PM PDT
Moon 12:23 PM PDT (7/14) 11:59 PM PDT (7/14)
Length of Visible Light 15h 55m
Length of Day
14h 50m
Waxing Crescent, 36% of the Moon is Illuminated
Jul 14
Waxing Crescent
Jul 15
First Quarter
Jul 22
Full
Jul 29
Last Quarter
Aug 6
New

Hourly Weather History & Observations

Time (PDT) Temp. Dew Point Humidity Pressure Visibility Wind Dir Wind Speed Gust Speed Precip Events Conditions
12:53 AM 46.9 °F 45.0 °F 93% 30.00 in 10.0 mi ESE 3.5 mph - N/A   Clear
1:53 AM 46.9 °F 45.0 °F 93% 29.99 in 10.0 mi Calm Calm - N/A   Clear
2:53 AM 46.0 °F 44.1 °F 93% 29.99 in 10.0 mi Calm Calm - N/A   Clear
3:53 AM 45.0 °F 44.1 °F 97% 29.99 in 9.0 mi Calm Calm - N/A   Clear
4:53 AM 45.0 °F 43.0 °F 93% 29.98 in 10.0 mi Calm Calm - N/A   Clear
5:53 AM 44.1 °F 42.1 °F 93% 29.99 in 10.0 mi Calm Calm - N/A   Clear
6:06 AM 44.6 °F 42.8 °F 93% 29.97 in 10.0 mi Calm Calm - N/A   Scattered Clouds
6:15 AM 44.6 °F 44.6 °F 100% 29.97 in 10.0 mi Calm Calm - N/A   Mostly Cloudy
6:28 AM 46.4 °F 44.6 °F 93% 29.97 in 9.0 mi Calm Calm - N/A   Overcast
6:45 AM 48.2 °F 46.4 °F 93% 29.98 in 1.8 mi Calm Calm - N/A   Overcast
6:53 AM 48.0 °F 48.0 °F 100% 30.00 in 1.2 mi Calm Calm - N/A   Overcast
7:03 AM 48.2 °F 48.2 °F 100% 29.98 in 0.2 mi Calm Calm - N/A Fog Fog
7:17 AM 50.0 °F 50.0 °F 100% 29.98 in 0.2 mi Calm Calm - N/A Fog Fog
7:53 AM 50.0 °F 50.0 °F 100% 30.00 in 0.2 mi Calm Calm - N/A Fog Fog
8:12 AM 50.0 °F 50.0 °F 100% 29.98 in 0.5 mi Calm Calm - N/A Fog Fog
8:36 AM 50.0 °F 50.0 °F 100% 29.99 in 1.2 mi Calm Calm - N/A   Overcast
8:53 AM 50.0 °F 50.0 °F 100% 30.01 in 2.5 mi Calm Calm - N/A   Overcast
9:08 AM 51.8 °F 51.8 °F 100% 29.99 in 4.0 mi SW 3.5 mph - N/A   Overcast
9:19 AM 51.8 °F 51.8 °F 100% 29.99 in 2.5 mi Calm Calm - N/A   Overcast
9:28 AM 51.8 °F 51.8 °F 100% 29.99 in 5.0 mi Variable 3.5 mph - N/A   Overcast
9:53 AM 53.1 °F 51.1 °F 93% 30.01 in 8.0 mi West 5.8 mph - N/A   Mostly Cloudy
10:07 AM 53.6 °F 51.8 °F 94% 29.99 in 9.0 mi WSW 4.6 mph - N/A   Scattered Clouds
10:53 AM 55.0 °F 51.1 °F 86% 30.01 in 10.0 mi WNW 4.6 mph - N/A   Clear
11:53 AM 57.0 °F 51.1 °F 81% 30.01 in 10.0 mi WNW 5.8 mph - N/A   Clear
12:53 PM 57.0 °F 51.1 °F 81% 30.01 in 10.0 mi NW 5.8 mph - N/A   Clear
1:53 PM 59.0 °F 51.1 °F 75% 30.01 in 10.0 mi Variable 4.6 mph - N/A   Clear
2:53 PM 57.0 °F 51.1 °F 81% 30.01 in 10.0 mi NW 5.8 mph - N/A   Clear
3:53 PM 57.0 °F 51.1 °F 81% 30.01 in 10.0 mi WNW 4.6 mph - N/A   Clear
4:35 PM 55.4 °F 50.0 °F 82% 29.98 in 9.0 mi NW 4.6 mph - N/A   Partly Cloudy
4:53 PM 55.9 °F 51.1 °F 84% 29.99 in 9.0 mi WNW 5.8 mph - N/A   Clear
5:53 PM 55.9 °F 51.1 °F 84% 29.98 in 7.0 mi NNW 3.5 mph - N/A   Clear
6:53 PM 55.9 °F 50.0 °F 80% 29.97 in 9.0 mi WNW 4.6 mph - N/A   Clear
7:53 PM 53.1 °F 50.0 °F 89% 29.97 in 7.0 mi Calm Calm - N/A   Clear
8:53 PM 53.1 °F 48.9 °F 86% 29.97 in 6.0 mi North - - N/A   Clear
9:53 PM 52.0 °F 48.9 °F 89% 29.96 in 7.0 mi Calm Calm - N/A   Clear
10:53 PM 51.1 °F 48.9 °F 92% 29.96 in 8.0 mi Calm Calm - N/A   Clear
11:08 PM 51.8 °F 48.2 °F 88% 29.94 in 8.0 mi Calm Calm - N/A   Scattered Clouds
11:18 PM 51.8 °F 48.2 °F 88% 29.94 in 8.0 mi Calm Calm - N/A   Mostly Cloudy
11:53 PM 51.1 °F 50.0 °F 96% 29.95 in 6.0 mi SSE 6.9 mph - N/A   Overcast